Location: Ferchesar
(52.6477°N, 12.4298°E)
Time: 06:40:00
(UTC+01:00)

Transit 2A Rocket - Pass Details

Date: 09 December 2021
Orbit: 585 x 917 km, 66.7° (Epoch: 25 January)

Event Time Altitude Azimuth Distance (km) Brightness Sun altitude
Rises 05:32:53 0° 171° (S) 3,351 8.5 -22.4°
Reaches altitude 10° 05:35:43 10° 157° (SSE) 2,474 8.0 -22.0°
Maximum altitude 05:40:07 23° 108° (ESE) 1,793 7.7 -21.3°
Drops below altitude 10° 05:44:42 10° 58° (ENE) 2,597 8.4 -20.6°
Sets 05:47:45 0° 45° (NE) 3,561 8.9 -20.2°
